Year,Month,Day,Hour,Minute,Value (Times are PST for windgust in km/hr)
2019,09,26,00,00,8.10
2019,09,26,00,01,8.10
2019,09,26,00,02,8.10
2019,09,26,00,03,9.60
2019,09,26,00,04,11.30
2019,09,26,00,05,9.60
2019,09,26,00,06,9.60
2019,09,26,00,07,9.60
2019,09,26,00,08,9.60
2019,09,26,00,09,9.60
2019,09,26,00,10,12.90
2019,09,26,00,11,12.90
2019,09,26,00,12,9.60
2019,09,26,00,13,12.90
2019,09,26,00,14,12.90
2019,09,26,00,15,12.90
2019,09,26,00,16,14.50
2019,09,26,00,17,9.60
2019,09,26,00,18,9.60
2019,09,26,00,19,9.60
2019,09,26,00,20,9.60
2019,09,26,00,21,9.60
2019,09,26,00,22,8.10
2019,09,26,00,23,8.10
2019,09,26,00,24,9.60
2019,09,26,00,25,14.50
2019,09,26,00,26,16.10
2019,09,26,00,27,16.10
2019,09,26,00,28,12.90
2019,09,26,00,29,14.50
2019,09,26,00,30,14.50
2019,09,26,00,31,12.90
2019,09,26,00,32,14.50
2019,09,26,00,33,14.50
2019,09,26,00,34,14.50
2019,09,26,00,35,16.10
2019,09,26,00,36,14.50
2019,09,26,00,37,17.70
2019,09,26,00,38,17.70
2019,09,26,00,39,16.10
2019,09,26,00,40,16.10
2019,09,26,00,41,16.10
2019,09,26,00,42,16.10
2019,09,26,00,43,16.10
2019,09,26,00,44,12.90
2019,09,26,00,45,14.50
2019,09,26,00,46,17.70
2019,09,26,00,47,14.50
2019,09,26,00,48,14.50
2019,09,26,00,49,11.30
2019,09,26,00,50,12.90
2019,09,26,00,51,14.50
2019,09,26,00,52,16.10
2019,09,26,00,53,14.50
2019,09,26,00,54,14.50
2019,09,26,00,55,14.50
2019,09,26,00,56,12.90
2019,09,26,00,57,11.30
2019,09,26,00,58,14.50
2019,09,26,00,59,12.90
2019,09,26,01,00,14.50
2019,09,26,01,01,12.90
2019,09,26,01,02,9.60
2019,09,26,01,03,9.60
2019,09,26,01,04,11.30
2019,09,26,01,05,17.70
2019,09,26,01,06,12.90
2019,09,26,01,07,12.90
2019,09,26,01,08,17.70
2019,09,26,01,09,19.30
2019,09,26,01,10,14.50
2019,09,26,01,11,9.60
2019,09,26,01,12,8.10
2019,09,26,01,13,9.60
2019,09,26,01,14,9.60
2019,09,26,01,15,9.60
2019,09,26,01,16,12.90
2019,09,26,01,17,12.90
2019,09,26,01,18,14.50
2019,09,26,01,19,11.30
2019,09,26,01,20,12.90
2019,09,26,01,21,14.50
2019,09,26,01,22,16.10
2019,09,26,01,23,12.90
2019,09,26,01,24,17.70
2019,09,26,01,25,16.10
2019,09,26,01,26,12.90
2019,09,26,01,27,9.60
2019,09,26,01,28,11.30
2019,09,26,01,29,16.10
2019,09,26,01,30,12.90
2019,09,26,01,31,9.60
2019,09,26,01,32,11.30
2019,09,26,01,33,12.90
2019,09,26,01,34,11.30
2019,09,26,01,35,11.30
2019,09,26,01,36,11.30
2019,09,26,01,37,9.60
2019,09,26,01,38,9.60
2019,09,26,01,39,8.10
2019,09,26,01,40,11.30
2019,09,26,01,41,9.60
2019,09,26,01,42,9.60
2019,09,26,01,43,6.40
2019,09,26,01,44,9.60
2019,09,26,01,45,12.90
2019,09,26,01,46,12.90
2019,09,26,01,47,12.90
2019,09,26,01,48,12.90
2019,09,26,01,49,11.30
2019,09,26,01,50,11.30
2019,09,26,01,51,11.30
2019,09,26,01,52,11.30
2019,09,26,01,53,9.60
2019,09,26,01,54,8.10
2019,09,26,01,55,12.90
2019,09,26,01,56,6.40
2019,09,26,01,57,6.40
2019,09,26,01,58,8.10
2019,09,26,01,59,9.60
2019,09,26,02,00,9.60
2019,09,26,02,01,6.40
2019,09,26,02,02,4.80
2019,09,26,02,03,8.10
2019,09,26,02,04,6.40
2019,09,26,02,05,4.80
2019,09,26,02,06,6.40
2019,09,26,02,07,4.80
2019,09,26,02,08,4.80
2019,09,26,02,09,8.10
2019,09,26,02,10,4.80
2019,09,26,02,11,3.20
2019,09,26,02,12,1.60
2019,09,26,02,13,1.60
2019,09,26,02,14,1.60
2019,09,26,02,15,3.20
2019,09,26,02,16,3.20
2019,09,26,02,17,4.80
2019,09,26,02,18,6.40
2019,09,26,02,19,8.10
2019,09,26,02,20,9.60
2019,09,26,02,21,11.30
2019,09,26,02,22,14.50
2019,09,26,02,23,12.90
2019,09,26,02,24,12.90
2019,09,26,02,25,14.50
2019,09,26,02,26,14.50
2019,09,26,02,27,12.90
2019,09,26,02,28,12.90
2019,09,26,02,29,8.10
2019,09,26,02,30,6.40
2019,09,26,02,31,12.90
2019,09,26,02,32,8.10
2019,09,26,02,33,12.90
2019,09,26,02,34,11.30
2019,09,26,02,35,8.10
2019,09,26,02,36,8.10
2019,09,26,02,37,8.10
2019,09,26,02,38,9.60
2019,09,26,02,39,11.30
2019,09,26,02,40,11.30
2019,09,26,02,41,11.30
2019,09,26,02,42,11.30
2019,09,26,02,43,12.90
2019,09,26,02,44,14.50
2019,09,26,02,45,12.90
2019,09,26,02,46,11.30
2019,09,26,02,47,12.90
2019,09,26,02,48,12.90
2019,09,26,02,49,14.50
2019,09,26,02,50,8.10
2019,09,26,02,51,11.30
2019,09,26,02,52,9.60
2019,09,26,02,53,11.30
2019,09,26,02,54,11.30
2019,09,26,02,55,12.90
2019,09,26,02,56,9.60
2019,09,26,02,57,8.10
2019,09,26,02,58,8.10
2019,09,26,02,59,11.30
2019,09,26,03,00,12.90
2019,09,26,03,01,9.60
2019,09,26,03,02,12.90
2019,09,26,03,03,11.30
2019,09,26,03,04,9.60
2019,09,26,03,05,12.90
2019,09,26,03,06,11.30
2019,09,26,03,07,14.50
2019,09,26,03,08,11.30
2019,09,26,03,09,9.60
2019,09,26,03,10,11.30
2019,09,26,03,11,12.90
2019,09,26,03,12,11.30
2019,09,26,03,13,6.40
2019,09,26,03,14,9.60
2019,09,26,03,15,12.90
2019,09,26,03,16,12.90
2019,09,26,03,17,12.90
2019,09,26,03,18,9.60
2019,09,26,03,19,9.60
2019,09,26,03,20,11.30
2019,09,26,03,21,12.90
2019,09,26,03,22,12.90
2019,09,26,03,23,14.50
2019,09,26,03,24,9.60
2019,09,26,03,25,9.60
2019,09,26,03,26,8.10
2019,09,26,03,27,8.10
2019,09,26,03,28,12.90
2019,09,26,03,29,9.60
2019,09,26,03,30,14.50
2019,09,26,03,31,12.90
2019,09,26,03,32,11.30
2019,09,26,03,33,8.10
2019,09,26,03,34,14.50
2019,09,26,03,35,8.10
2019,09,26,03,36,11.30
2019,09,26,03,37,11.30
2019,09,26,03,38,11.30
2019,09,26,03,39,8.10
2019,09,26,03,40,9.60
2019,09,26,03,41,12.90
2019,09,26,03,42,14.50
2019,09,26,03,43,16.10
2019,09,26,03,44,16.10
2019,09,26,03,45,19.30
2019,09,26,03,46,17.70
2019,09,26,03,47,16.10
2019,09,26,03,48,17.70
2019,09,26,03,49,16.10
2019,09,26,03,50,14.50
2019,09,26,03,51,16.10
2019,09,26,03,52,19.30
2019,09,26,03,53,16.10
2019,09,26,03,54,14.50
2019,09,26,03,55,16.10
2019,09,26,03,56,12.90
2019,09,26,03,57,16.10
2019,09,26,03,58,16.10
2019,09,26,03,59,17.70
2019,09,26,04,00,14.50
2019,09,26,04,01,17.70
2019,09,26,04,02,17.70
2019,09,26,04,03,16.10
2019,09,26,04,04,17.70
2019,09,26,04,05,12.90
2019,09,26,04,06,17.70
2019,09,26,04,07,16.10
2019,09,26,04,08,16.10
2019,09,26,04,09,16.10
2019,09,26,04,10,17.70
2019,09,26,04,11,17.70
2019,09,26,04,12,19.30
2019,09,26,04,13,22.50
2019,09,26,04,14,24.20
2019,09,26,04,15,20.90
2019,09,26,04,16,24.20
2019,09,26,04,17,27.40
2019,09,26,04,18,25.70
2019,09,26,04,19,27.40
2019,09,26,04,20,25.70
2019,09,26,04,21,29.00
2019,09,26,04,22,25.70
2019,09,26,04,23,30.60
2019,09,26,04,24,27.40
2019,09,26,04,25,24.20
2019,09,26,04,26,19.30
2019,09,26,04,27,20.90
2019,09,26,04,28,19.30
2019,09,26,04,29,20.90
2019,09,26,04,30,17.70
2019,09,26,04,31,25.70
2019,09,26,04,32,16.10
2019,09,26,04,33,17.70
2019,09,26,04,34,22.50
2019,09,26,04,35,22.50
2019,09,26,04,36,11.30
2019,09,26,04,37,11.30
2019,09,26,04,38,11.30
2019,09,26,04,39,11.30
2019,09,26,04,40,11.30
2019,09,26,04,41,11.30
2019,09,26,04,42,11.30
2019,09,26,04,43,11.30
2019,09,26,04,44,11.30
2019,09,26,04,45,11.30
2019,09,26,08,08,8.10
2019,09,26,08,09,14.50
2019,09,26,08,10,12.90
2019,09,26,08,11,8.10
2019,09,26,08,12,16.10
2019,09,26,08,13,14.50
2019,09,26,08,14,4.80
2019,09,26,08,15,4.80
2019,09,26,08,16,14.50
2019,09,26,08,17,12.90
2019,09,26,08,18,6.40
2019,09,26,08,19,3.20
2019,09,26,08,20,4.80
2019,09,26,08,21,11.30
2019,09,26,08,22,4.80
2019,09,26,08,23,4.80
2019,09,26,08,24,12.90
2019,09,26,08,25,11.30
2019,09,26,08,26,1.60
2019,09,26,08,27,3.20
2019,09,26,08,28,6.40
2019,09,26,08,29,4.80
2019,09,26,08,30,8.10
2019,09,26,08,31,6.40
2019,09,26,08,32,9.60
2019,09,26,08,33,8.10
2019,09,26,08,34,8.10
2019,09,26,08,35,8.10
2019,09,26,08,36,8.10
2019,09,26,08,37,9.60
2019,09,26,08,38,6.40
2019,09,26,08,39,8.10
2019,09,26,08,40,6.40
2019,09,26,08,41,6.40
2019,09,26,08,42,6.40
2019,09,26,08,43,4.80
2019,09,26,08,44,3.20
2019,09,26,08,45,3.20
2019,09,26,08,46,3.20
2019,09,26,08,47,6.40
2019,09,26,08,48,4.80
2019,09,26,08,49,4.80
2019,09,26,08,50,1.60
2019,09,26,08,52,3.20
2019,09,26,08,53,3.20
2019,09,26,08,54,4.80
2019,09,26,08,55,4.80
2019,09,26,08,56,6.40
2019,09,26,08,57,6.40
2019,09,26,08,58,8.10
2019,09,26,08,59,6.40
2019,09,26,09,00,4.80
2019,09,26,09,01,1.60
2019,09,26,09,02,6.40
2019,09,26,09,03,6.40
2019,09,26,09,04,6.40
2019,09,26,09,05,4.80
2019,09,26,09,06,8.10
2019,09,26,09,07,4.80
2019,09,26,09,08,8.10
2019,09,26,09,09,4.80
2019,09,26,09,10,4.80
2019,09,26,09,11,6.40
2019,09,26,09,12,4.80
2019,09,26,09,13,3.20
2019,09,26,09,14,1.60
2019,09,26,09,15,6.40
2019,09,26,09,16,8.10
2019,09,26,09,17,4.80
2019,09,26,09,18,6.40
2019,09,26,09,19,4.80
2019,09,26,09,20,4.80
2019,09,26,09,21,6.40
2019,09,26,09,22,6.40
2019,09,26,09,23,4.80
2019,09,26,09,24,1.60
2019,09,26,09,25,3.20
2019,09,26,09,26,3.20
2019,09,26,09,27,3.20
2019,09,26,09,28,4.80
2019,09,26,09,29,4.80
2019,09,26,09,30,3.20
2019,09,26,09,31,4.80
2019,09,26,09,32,4.80
2019,09,26,09,33,3.20
2019,09,26,09,34,6.40
2019,09,26,09,35,8.10
2019,09,26,09,36,8.10
2019,09,26,09,37,8.10
2019,09,26,09,38,6.40
2019,09,26,09,39,6.40
2019,09,26,09,40,6.40
2019,09,26,09,41,9.60
2019,09,26,09,42,8.10
2019,09,26,09,43,8.10
2019,09,26,09,44,8.10
2019,09,26,09,45,8.10
2019,09,26,09,46,8.10
2019,09,26,09,47,8.10
2019,09,26,09,48,8.10
2019,09,26,09,49,11.30
2019,09,26,09,50,6.40
2019,09,26,09,51,6.40
2019,09,26,09,52,6.40
2019,09,26,09,53,1.60
2019,09,26,09,54,1.60
2019,09,26,09,55,3.20
2019,09,26,09,56,3.20
2019,09,26,09,57,3.20
2019,09,26,09,58,4.80
2019,09,26,09,59,3.20
2019,09,26,10,00,1.60
2019,09,26,10,01,1.60
2019,09,26,10,02,1.60
2019,09,26,10,03,1.60
2019,09,26,10,05,1.60
2019,09,26,10,09,3.20
2019,09,26,10,10,3.20
2019,09,26,10,11,3.20
2019,09,26,10,12,6.40
2019,09,26,10,13,3.20
2019,09,26,10,14,1.60
2019,09,26,10,15,1.60
2019,09,26,10,18,1.60
2019,09,26,10,28,1.60
2019,09,26,10,45,1.60
2019,09,26,10,46,1.60
2019,09,26,10,56,1.60
2019,09,26,10,57,3.20
2019,09,26,10,58,1.60
2019,09,26,11,04,3.20
2019,09,26,11,05,4.80
2019,09,26,11,06,4.80
2019,09,26,11,07,4.80
2019,09,26,11,08,3.20
2019,09,26,11,09,1.60
2019,09,26,11,10,1.60
2019,09,26,11,11,3.20
2019,09,26,11,12,1.60
2019,09,26,11,14,3.20
2019,09,26,11,15,3.20
2019,09,26,11,16,3.20
2019,09,26,11,19,3.20
2019,09,26,11,20,4.80
2019,09,26,11,21,3.20
2019,09,26,11,22,4.80
2019,09,26,11,23,4.80
2019,09,26,11,24,3.20
2019,09,26,11,25,1.60
2019,09,26,11,26,3.20
2019,09,26,11,27,1.60
2019,09,26,11,29,1.60
2019,09,26,11,31,3.20
2019,09,26,11,32,1.60
2019,09,26,11,33,3.20
2019,09,26,11,34,4.80
2019,09,26,11,35,6.40
2019,09,26,11,36,6.40
2019,09,26,11,37,3.20
2019,09,26,11,38,4.80
2019,09,26,11,39,1.60
2019,09,26,11,40,3.20
2019,09,26,11,41,6.40
2019,09,26,11,42,4.80
2019,09,26,11,43,6.40
2019,09,26,11,44,9.60
2019,09,26,11,45,8.10
2019,09,26,11,46,6.40
2019,09,26,11,47,6.40
2019,09,26,11,48,4.80
2019,09,26,11,49,6.40
2019,09,26,11,50,3.20
2019,09,26,11,51,4.80
2019,09,26,11,52,4.80
2019,09,26,11,53,1.60
2019,09,26,11,54,3.20
2019,09,26,11,55,8.10
2019,09,26,11,56,4.80
2019,09,26,11,57,6.40
2019,09,26,11,58,6.40
2019,09,26,11,59,9.60
2019,09,26,12,00,12.90
2019,09,26,12,01,11.30
2019,09,26,12,02,9.60
2019,09,26,12,03,12.90
2019,09,26,12,04,12.90
2019,09,26,12,05,11.30
2019,09,26,12,06,9.60
2019,09,26,12,07,9.60
2019,09,26,12,08,11.30
2019,09,26,12,09,8.10
2019,09,26,12,10,4.80
2019,09,26,12,11,4.80
2019,09,26,12,12,6.40
2019,09,26,12,13,9.60
2019,09,26,12,14,11.30
2019,09,26,12,15,8.10
2019,09,26,12,16,4.80
2019,09,26,12,17,4.80
2019,09,26,12,18,8.10
2019,09,26,12,19,9.60
2019,09,26,12,20,8.10
2019,09,26,12,21,4.80
2019,09,26,12,22,11.30
2019,09,26,12,23,4.80
2019,09,26,12,24,6.40
2019,09,26,12,25,4.80
2019,09,26,12,26,9.60
2019,09,26,12,27,6.40
2019,09,26,12,28,9.60
2019,09,26,12,29,12.90
2019,09,26,12,30,8.10
2019,09,26,12,31,12.90
2019,09,26,12,32,14.50
2019,09,26,12,33,12.90
2019,09,26,12,34,11.30
2019,09,26,12,35,9.60
2019,09,26,12,36,12.90
2019,09,26,12,37,16.10
2019,09,26,12,38,16.10
2019,09,26,12,39,14.50
2019,09,26,12,40,14.50
2019,09,26,12,41,11.30
2019,09,26,12,42,6.40
2019,09,26,12,43,14.50
2019,09,26,12,44,12.90
2019,09,26,12,45,11.30
2019,09,26,12,46,11.30
2019,09,26,12,47,14.50
2019,09,26,12,48,12.90
2019,09,26,12,49,12.90
2019,09,26,12,50,14.50
2019,09,26,12,51,11.30
2019,09,26,12,52,14.50
2019,09,26,12,53,14.50
2019,09,26,12,54,12.90
2019,09,26,12,55,14.50
2019,09,26,12,56,12.90
2019,09,26,12,57,11.30
2019,09,26,12,58,8.10
2019,09,26,12,59,11.30
2019,09,26,13,00,12.90
2019,09,26,13,01,14.50
2019,09,26,13,02,11.30
2019,09,26,13,03,12.90
2019,09,26,13,04,14.50
2019,09,26,13,05,16.10
2019,09,26,13,06,14.50
2019,09,26,13,07,11.30
2019,09,26,13,08,12.90
2019,09,26,13,09,14.50
2019,09,26,13,10,12.90
2019,09,26,13,11,9.60
2019,09,26,13,12,11.30
2019,09,26,13,13,6.40
2019,09,26,13,14,16.10
2019,09,26,13,15,16.10
2019,09,26,13,16,14.50
2019,09,26,13,17,14.50
2019,09,26,13,18,14.50
2019,09,26,13,19,12.90
2019,09,26,13,20,14.50
2019,09,26,13,21,12.90
2019,09,26,13,22,11.30
2019,09,26,13,23,9.60
2019,09,26,13,24,6.40
2019,09,26,13,25,11.30
2019,09,26,13,26,11.30
2019,09,26,13,27,9.60
2019,09,26,13,28,11.30
2019,09,26,13,29,12.90
2019,09,26,13,30,8.10
2019,09,26,13,31,6.40
2019,09,26,13,32,9.60
2019,09,26,13,33,14.50
2019,09,26,13,34,19.30
2019,09,26,13,35,12.90
2019,09,26,13,36,12.90
2019,09,26,13,37,12.90
2019,09,26,13,38,16.10
2019,09,26,13,39,12.90
2019,09,26,13,40,11.30
2019,09,26,13,41,12.90
2019,09,26,13,42,16.10
2019,09,26,13,43,12.90
2019,09,26,13,44,11.30
2019,09,26,13,45,11.30
2019,09,26,13,46,11.30
2019,09,26,13,47,8.10
2019,09,26,13,48,11.30
2019,09,26,13,49,16.10
2019,09,26,13,50,16.10
2019,09,26,13,51,19.30
2019,09,26,13,52,12.90
2019,09,26,13,53,11.30
2019,09,26,13,54,9.60
2019,09,26,13,55,14.50
2019,09,26,13,56,16.10
2019,09,26,13,57,9.60
2019,09,26,13,58,11.30
2019,09,26,13,59,12.90
2019,09,26,14,00,12.90
2019,09,26,14,01,12.90
2019,09,26,14,02,12.90
2019,09,26,14,03,9.60
2019,09,26,14,04,14.50
2019,09,26,14,05,12.90
2019,09,26,14,06,12.90
2019,09,26,14,07,12.90
2019,09,26,14,08,14.50
2019,09,26,14,09,16.10
2019,09,26,14,10,12.90
2019,09,26,14,11,11.30
2019,09,26,14,12,11.30
2019,09,26,14,13,14.50
2019,09,26,14,14,16.10
2019,09,26,14,15,16.10
2019,09,26,14,16,17.70
2019,09,26,14,17,17.70
2019,09,26,14,18,19.30
2019,09,26,14,19,20.90
2019,09,26,14,20,17.70
2019,09,26,14,21,17.70
2019,09,26,14,22,14.50
2019,09,26,14,23,16.10
2019,09,26,14,24,16.10
2019,09,26,14,25,17.70
2019,09,26,14,26,14.50
2019,09,26,14,27,16.10
2019,09,26,14,28,11.30
2019,09,26,14,29,11.30
2019,09,26,14,30,11.30
2019,09,26,14,31,17.70
2019,09,26,14,32,11.30
2019,09,26,14,33,14.50
2019,09,26,14,34,14.50
2019,09,26,14,35,8.10
2019,09,26,14,36,11.30
2019,09,26,14,37,12.90
2019,09,26,14,38,11.30
2019,09,26,14,39,16.10
2019,09,26,14,40,12.90
2019,09,26,14,41,14.50
2019,09,26,14,42,12.90
2019,09,26,14,43,11.30
2019,09,26,14,44,12.90
2019,09,26,14,45,11.30
2019,09,26,14,46,8.10
2019,09,26,14,47,11.30
2019,09,26,14,48,11.30
2019,09,26,14,49,6.40
2019,09,26,14,50,6.40
2019,09,26,14,51,11.30
2019,09,26,14,52,12.90
2019,09,26,14,53,11.30
2019,09,26,14,54,11.30
2019,09,26,14,55,8.10
2019,09,26,14,56,12.90
2019,09,26,14,57,12.90
2019,09,26,14,58,12.90
2019,09,26,14,59,12.90
2019,09,26,15,00,11.30
2019,09,26,15,01,8.10
2019,09,26,15,02,14.50
2019,09,26,15,03,14.50
2019,09,26,15,04,8.10
2019,09,26,15,05,6.40
2019,09,26,15,06,9.60
2019,09,26,15,07,6.40
2019,09,26,15,08,8.10
2019,09,26,15,09,14.50
2019,09,26,15,10,11.30
2019,09,26,15,11,12.90
2019,09,26,15,12,16.10
2019,09,26,15,13,16.10
2019,09,26,15,14,17.70
2019,09,26,15,15,16.10
2019,09,26,15,16,17.70
2019,09,26,15,17,17.70
2019,09,26,15,18,17.70
2019,09,26,15,19,17.70
2019,09,26,15,20,14.50
2019,09,26,15,21,16.10
2019,09,26,15,22,12.90
2019,09,26,15,23,11.30
2019,09,26,15,24,17.70
2019,09,26,15,25,17.70
2019,09,26,15,26,16.10
2019,09,26,15,27,17.70
2019,09,26,15,28,14.50
2019,09,26,15,29,12.90
2019,09,26,15,30,12.90
2019,09,26,15,31,9.60
2019,09,26,15,32,9.60
2019,09,26,15,33,8.10
2019,09,26,15,34,9.60
2019,09,26,15,35,6.40
2019,09,26,15,36,14.50
2019,09,26,15,37,12.90
2019,09,26,15,38,11.30
2019,09,26,15,39,9.60
2019,09,26,15,40,11.30
2019,09,26,15,41,11.30
2019,09,26,15,42,9.60
2019,09,26,15,43,9.60
2019,09,26,15,44,8.10
2019,09,26,15,45,11.30
2019,09,26,15,46,3.20
2019,09,26,15,47,12.90
2019,09,26,15,48,12.90
2019,09,26,15,49,11.30
2019,09,26,15,50,9.60
2019,09,26,15,51,11.30
2019,09,26,15,52,12.90
2019,09,26,15,53,11.30
2019,09,26,15,54,11.30
2019,09,26,15,55,12.90
2019,09,26,15,56,9.60
2019,09,26,15,57,9.60
2019,09,26,15,58,6.40
2019,09,26,15,59,4.80
2019,09,26,16,00,3.20
2019,09,26,16,01,6.40
2019,09,26,16,02,9.60
2019,09,26,16,03,9.60
2019,09,26,16,04,9.60
2019,09,26,16,05,6.40
2019,09,26,16,06,9.60
2019,09,26,16,07,9.60
2019,09,26,16,08,4.80
2019,09,26,16,09,4.80
2019,09,26,16,10,6.40
2019,09,26,16,11,6.40
2019,09,26,16,12,8.10
2019,09,26,16,13,9.60
2019,09,26,16,14,6.40
2019,09,26,16,15,8.10
2019,09,26,16,16,14.50
2019,09,26,16,17,14.50
2019,09,26,16,18,12.90
2019,09,26,16,19,12.90
2019,09,26,16,20,11.30
2019,09,26,16,21,17.70
2019,09,26,16,22,16.10
2019,09,26,16,23,14.50
2019,09,26,16,24,14.50
2019,09,26,16,25,14.50
2019,09,26,16,26,14.50
2019,09,26,16,27,11.30
2019,09,26,16,28,12.90
2019,09,26,16,29,12.90
2019,09,26,16,30,11.30
2019,09,26,16,31,12.90
2019,09,26,16,32,12.90
2019,09,26,16,33,12.90
2019,09,26,16,34,19.30
2019,09,26,16,35,17.70
2019,09,26,16,36,17.70
2019,09,26,16,37,17.70
2019,09,26,16,38,17.70
2019,09,26,16,39,17.70
2019,09,26,16,40,17.70
2019,09,26,16,41,19.30
2019,09,26,16,42,17.70
2019,09,26,16,43,20.90
2019,09,26,16,44,17.70
2019,09,26,16,45,16.10
2019,09,26,16,46,16.10
2019,09,26,16,47,16.10
2019,09,26,16,48,12.90
2019,09,26,16,49,12.90
2019,09,26,16,50,11.30
2019,09,26,16,51,11.30
2019,09,26,16,52,12.90
2019,09,26,16,53,12.90
2019,09,26,16,54,11.30
2019,09,26,16,55,9.60
2019,09,26,16,56,8.10
2019,09,26,16,57,12.90
2019,09,26,16,58,11.30
2019,09,26,16,59,11.30
2019,09,26,17,00,16.10
2019,09,26,17,01,11.30
2019,09,26,17,02,11.30
2019,09,26,17,03,12.90
2019,09,26,17,04,11.30
2019,09,26,17,05,8.10
2019,09,26,17,06,14.50
2019,09,26,17,07,11.30
2019,09,26,17,08,11.30
2019,09,26,17,09,9.60
2019,09,26,17,10,6.40
2019,09,26,17,11,4.80
2019,09,26,17,12,9.60
2019,09,26,17,13,9.60
2019,09,26,17,14,8.10
2019,09,26,17,15,8.10
2019,09,26,17,16,11.30
2019,09,26,17,17,9.60
2019,09,26,17,18,17.70
2019,09,26,17,19,16.10
2019,09,26,17,20,17.70
2019,09,26,17,21,17.70
2019,09,26,17,22,14.50
2019,09,26,17,23,16.10
2019,09,26,17,24,17.70
2019,09,26,17,25,16.10
2019,09,26,17,26,14.50
2019,09,26,17,27,16.10
2019,09,26,17,28,16.10
2019,09,26,17,29,12.90
2019,09,26,17,30,9.60
2019,09,26,17,31,8.10
2019,09,26,17,32,11.30
2019,09,26,17,33,9.60
2019,09,26,17,34,8.10
2019,09,26,17,35,8.10
2019,09,26,17,36,12.90
2019,09,26,17,37,9.60
2019,09,26,17,38,11.30
2019,09,26,17,39,12.90
2019,09,26,17,40,11.30
2019,09,26,17,41,6.40
2019,09,26,17,42,9.60
2019,09,26,17,43,6.40
2019,09,26,17,44,6.40
2019,09,26,17,45,11.30
2019,09,26,17,46,11.30
2019,09,26,17,47,11.30
2019,09,26,17,48,6.40
2019,09,26,17,49,6.40
2019,09,26,17,50,9.60
2019,09,26,17,51,11.30
2019,09,26,17,52,11.30
2019,09,26,17,53,11.30
2019,09,26,17,54,9.60
2019,09,26,17,55,11.30
2019,09,26,17,56,11.30
2019,09,26,17,57,12.90
2019,09,26,17,58,11.30
2019,09,26,17,59,6.40
2019,09,26,18,00,9.60
2019,09,26,18,01,9.60
2019,09,26,18,02,4.80
2019,09,26,18,03,9.60
2019,09,26,18,04,9.60
2019,09,26,18,05,6.40
2019,09,26,18,06,6.40
2019,09,26,18,07,6.40
2019,09,26,18,08,9.60
2019,09,26,18,09,11.30
2019,09,26,18,10,6.40
2019,09,26,18,11,4.80
2019,09,26,18,12,4.80
2019,09,26,18,13,11.30
2019,09,26,18,14,11.30
2019,09,26,18,15,12.90
2019,09,26,18,16,12.90
2019,09,26,18,17,6.40
2019,09,26,18,18,9.60
2019,09,26,18,19,11.30
2019,09,26,18,20,6.40
2019,09,26,18,21,4.80
2019,09,26,18,22,6.40
2019,09,26,18,23,6.40
2019,09,26,18,24,12.90
2019,09,26,18,25,11.30
2019,09,26,18,26,8.10
2019,09,26,18,27,11.30
2019,09,26,18,28,6.40
2019,09,26,18,29,8.10
2019,09,26,18,30,6.40
2019,09,26,18,31,11.30
2019,09,26,18,32,9.60
2019,09,26,18,33,11.30
2019,09,26,18,34,4.80
2019,09,26,18,35,9.60
2019,09,26,18,36,6.40
2019,09,26,18,37,9.60
2019,09,26,18,38,12.90
2019,09,26,18,39,9.60
2019,09,26,18,40,9.60
2019,09,26,18,41,4.80
2019,09,26,18,42,4.80
2019,09,26,18,43,4.80
2019,09,26,18,44,8.10
2019,09,26,18,45,9.60
2019,09,26,18,46,6.40
2019,09,26,18,47,9.60
2019,09,26,18,48,8.10
2019,09,26,18,49,9.60
2019,09,26,18,50,6.40
2019,09,26,18,51,11.30
2019,09,26,18,52,8.10
2019,09,26,18,53,8.10
2019,09,26,18,54,4.80
2019,09,26,18,55,6.40
2019,09,26,18,56,6.40
2019,09,26,18,57,8.10
2019,09,26,18,58,6.40
2019,09,26,18,59,4.80
2019,09,26,19,00,3.20
2019,09,26,19,01,4.80
2019,09,26,19,02,6.40
2019,09,26,19,03,4.80
2019,09,26,19,04,9.60
2019,09,26,19,05,4.80
2019,09,26,19,06,6.40
2019,09,26,19,07,4.80
2019,09,26,19,08,1.60
2019,09,26,19,09,9.60
2019,09,26,19,10,9.60
2019,09,26,19,11,4.80
2019,09,26,19,12,3.20
2019,09,26,19,13,1.60
2019,09,26,19,14,3.20
2019,09,26,19,15,1.60
2019,09,26,19,16,1.60
2019,09,26,19,17,1.60
2019,09,26,19,18,6.40
2019,09,26,19,19,4.80
2019,09,26,19,20,6.40
2019,09,26,19,21,3.20
2019,09,26,19,22,4.80
2019,09,26,19,23,4.80
2019,09,26,19,24,4.80
2019,09,26,19,27,1.60
2019,09,26,19,28,3.20
2019,09,26,19,29,1.60
2019,09,26,19,30,1.60
2019,09,26,19,31,4.80
2019,09,26,19,32,6.40
2019,09,26,19,33,3.20
2019,09,26,19,34,3.20
2019,09,26,19,35,4.80
2019,09,26,19,36,1.60
2019,09,26,19,37,1.60
2019,09,26,19,38,1.60
2019,09,26,19,39,3.20
2019,09,26,19,40,1.60
2019,09,26,19,43,3.20
2019,09,26,19,44,3.20
2019,09,26,19,45,1.60
2019,09,26,19,46,3.20
2019,09,26,19,49,1.60
2019,09,26,19,50,4.80
2019,09,26,19,51,6.40
2019,09,26,19,52,6.40
2019,09,26,19,53,4.80
2019,09,26,19,54,3.20
2019,09,26,19,55,1.60
2019,09,26,19,56,1.60
2019,09,26,19,58,1.60
2019,09,26,19,59,1.60
2019,09,26,20,00,1.60
2019,09,26,20,03,1.60
2019,09,26,20,04,3.20
2019,09,26,20,05,3.20
2019,09,26,20,06,4.80
2019,09,26,20,07,4.80
2019,09,26,20,08,3.20
2019,09,26,20,09,3.20
2019,09,26,20,10,4.80
2019,09,26,20,11,3.20
2019,09,26,20,12,1.60
2019,09,26,20,13,1.60
2019,09,26,20,16,1.60
2019,09,26,20,17,1.60
2019,09,26,20,18,1.60
2019,09,26,20,28,1.60
2019,09,26,20,29,3.20
2019,09,26,20,30,4.80
2019,09,26,20,31,4.80
2019,09,26,20,32,6.40
2019,09,26,20,33,4.80
2019,09,26,20,34,3.20
2019,09,26,20,35,3.20
2019,09,26,20,36,6.40
2019,09,26,20,37,4.80
2019,09,26,20,38,4.80
2019,09,26,20,39,3.20
2019,09,26,20,40,1.60
2019,09,26,20,41,3.20
2019,09,26,20,42,3.20
2019,09,26,20,43,4.80
2019,09,26,20,44,3.20
2019,09,26,20,45,4.80
2019,09,26,20,46,4.80
2019,09,26,20,47,8.10
2019,09,26,20,48,8.10
2019,09,26,20,49,6.40
2019,09,26,20,50,4.80
2019,09,26,20,51,3.20
2019,09,26,20,52,1.60
2019,09,26,20,53,3.20
2019,09,26,20,54,4.80
2019,09,26,20,55,6.40
2019,09,26,20,56,8.10
2019,09,26,20,57,8.10
2019,09,26,20,58,8.10
2019,09,26,20,59,9.60
2019,09,26,21,00,8.10
2019,09,26,21,01,8.10
2019,09,26,21,02,6.40
2019,09,26,21,03,4.80
2019,09,26,21,04,6.40
2019,09,26,21,05,8.10
2019,09,26,21,06,6.40
2019,09,26,21,07,8.10
2019,09,26,21,08,8.10
2019,09,26,21,09,4.80
2019,09,26,21,10,4.80
2019,09,26,21,11,3.20
2019,09,26,21,12,3.20
2019,09,26,21,13,1.60
2019,09,26,21,14,3.20
2019,09,26,21,15,4.80
2019,09,26,21,16,3.20
2019,09,26,21,17,1.60
2019,09,26,21,34,1.60
2019,09,26,21,47,1.60
2019,09,26,21,48,1.60
2019,09,26,21,49,1.60
2019,09,26,21,52,1.60
2019,09,26,21,54,1.60
2019,09,26,21,55,1.60
2019,09,26,22,09,3.20
2019,09,26,22,10,1.60
2019,09,26,22,14,3.20
2019,09,26,22,15,3.20
2019,09,26,22,16,1.60
2019,09,26,22,17,1.60
2019,09,26,22,19,3.20
2019,09,26,22,20,3.20
2019,09,26,22,21,1.60
2019,09,26,22,25,1.60
2019,09,26,22,26,1.60
2019,09,26,22,27,1.60
2019,09,26,22,28,3.20
2019,09,26,22,29,4.80
2019,09,26,22,30,4.80
2019,09,26,22,31,4.80
2019,09,26,22,32,6.40
2019,09,26,22,33,3.20
2019,09,26,22,34,3.20
2019,09,26,22,35,4.80
2019,09,26,22,36,3.20
2019,09,26,22,37,1.60
2019,09,26,22,38,3.20
2019,09,26,22,39,1.60
2019,09,26,22,40,1.60
2019,09,26,22,41,1.60
2019,09,26,22,42,3.20
2019,09,26,22,43,3.20
2019,09,26,22,44,4.80
2019,09,26,22,45,3.20
2019,09,26,22,46,4.80
2019,09,26,22,47,4.80
2019,09,26,22,48,4.80
2019,09,26,22,49,6.40
2019,09,26,22,50,4.80
2019,09,26,22,51,6.40
2019,09,26,22,52,6.40
2019,09,26,22,53,6.40
2019,09,26,22,54,6.40
2019,09,26,22,55,4.80
2019,09,26,22,56,6.40
2019,09,26,22,57,4.80
2019,09,26,22,58,4.80
2019,09,26,22,59,4.80
2019,09,26,23,00,3.20
2019,09,26,23,01,3.20
2019,09,26,23,02,1.60
2019,09,26,23,04,1.60
2019,09,26,23,05,1.60
2019,09,26,23,22,4.80
2019,09,26,23,23,4.80
2019,09,26,23,24,3.20
2019,09,26,23,25,3.20
2019,09,26,23,26,3.20